Skip Page Navigation
NASA JPL Caltech
NASA Logo - Jet Propulsion Laboratory + View the NASA Portal
+ Near-Earth Object (NEO) Program
Search JPL
JPL Home Earth Solar System Stars & Galaxies Technology
JPL Solar System Dynamics
BODIES ORBITS EPHEMERIDES TOOLS PHYSICAL DATA DISCOVERY FAQ SITE MAP
JPL Small-Body Database Browser
Search: [ help ]  
C/2007 F1 (LONEOS)
Classification: Hyperbolic Comet          SPK-ID: 1002450
Ephemeris | Orbit Diagram | Orbital Elements | Physical Parameters ]

[ show orbit diagram ]
Orbital Elements at Epoch 2454259.5 (2007-Jun-08.0) TDB
Reference: JPL 22 (heliocentric ecliptic J2000)
 Element Value Uncertainty (1-sigma)   Units 
e 1.000085994656018 3.3752e-06  
a -4679.057680391525 183.64 AU
q .4023739557141501 1.2188e-06 AU
i 116.0820560803464 0.00011701 deg
node 172.8866442298644 4.5603e-05 deg
peri 153.7109378265983 0.00022774 deg
M -.0004396166203348303 2.588e-05 deg
tp 2454402.260357774066
(2007-Oct-28.76035777)
6.6385e-05 JED
period n/a
n/a
n/a
n/a
d
yr
n 3.079402624015359E-6 1.8128e-07 deg/d
Q n/a n/a AU
  Orbit Determination Parameters
   # obs. used (total)      198  
   data-arc span      217 days  
   first obs. used      2007-03-19  
   last obs. used      2007-10-22  
   planetary ephem.      DE431  
   SB-pert. ephem.      SB431-BIG16  
   fit RMS      .91326  
   data source      ORB  
   producer      Otto Matic  
   solution date      2014-Jun-13 19:43:55  

Additional Information
 Earth MOID = .57041 AU 
[ show covariance matrix ]

Ephemeris | Orbit Diagram | Orbital Elements | Physical Parameters ]

Physical Parameter Table
Parameter Symbol Value Units Sigma Reference Notes
comet total magnitude M1 10.8 mag 0.7 22 2 parameter fit from 49 observations, autocmod 2.5c
comet total magnitude slope K1 11.   n/a 22 autocmod 2.5c
comet nuclear magnitude M2 14.7 mag 0.8 22 from 92 observations, autocmod 2.5c
comet nuclear magnitude slope K2 5.   n/a 22 autocmod 2.5c
comet nuclear phase coefficient PC 0.03   n/a 22 autocmod 2.5c
Ephemeris | Orbit Diagram | Orbital Elements | Physical Parameters ]
ABOUT SSD CREDITS/AWARDS PRIVACY/COPYRIGHT GLOSSARY LINKS
FirstGov 2014-Jul-24 14:37 UT
(server date/time)  
NASA Home Page
Site Manager:   Donald K. Yeomans
Webmaster  Alan B. Chamberlin